TimeEST,TemperatureF,Dew PointF,Humidity,Sea Level PressureIn,VisibilityMPH,Wind Direction,Wind SpeedMPH,Gust SpeedMPH,PrecipitationIn,Events,Conditions,WindDirDegrees,DateUTC
12:52 AM,28.0,23.0,81,30.32,10.0,Calm,Calm,-,N/A,,Mostly Cloudy,0,2013-02-23 05:52:00
1:52 AM,30.0,24.1,79,30.31,10.0,Calm,Calm,-,N/A,,Overcast,0,2013-02-23 06:52:00
2:52 AM,30.0,23.0,75,30.30,10.0,Calm,Calm,-,N/A,,Overcast,0,2013-02-23 07:52:00
3:52 AM,30.9,24.1,76,30.28,10.0,Calm,Calm,-,N/A,,Overcast,0,2013-02-23 08:52:00
4:52 AM,30.9,23.0,72,30.27,10.0,Calm,Calm,-,N/A,,Overcast,0,2013-02-23 09:52:00
5:52 AM,30.9,24.1,76,30.26,10.0,Calm,Calm,-,N/A,,Overcast,0,2013-02-23 10:52:00
6:52 AM,30.9,25.0,79,30.26,10.0,Calm,Calm,-,N/A,,Overcast,0,2013-02-23 11:52:00
7:52 AM,32.0,24.1,73,30.25,10.0,Calm,Calm,-,N/A,,Overcast,0,2013-02-23 12:52:00
8:52 AM,33.1,24.1,70,30.24,10.0,SE,3.5,-,N/A,,Overcast,130,2013-02-23 13:52:00
9:52 AM,33.1,26.1,75,30.22,10.0,SSE,4.6,-,N/A,,Overcast,150,2013-02-23 14:52:00
10:52 AM,35.1,27.0,72,30.19,10.0,SE,9.2,-,N/A,,Overcast,140,2013-02-23 15:52:00
11:36 AM,35.6,26.6,70,30.16,10.0,SSE,10.4,-,N/A,,Overcast,150,2013-02-23 16:36:00
11:52 AM,36.0,27.0,70,30.17,10.0,SSE,8.1,-,N/A,,Overcast,150,2013-02-23 16:52:00
12:52 PM,36.0,28.0,73,30.14,10.0,SE,9.2,-,N/A,,Overcast,140,2013-02-23 17:52:00
1:52 PM,36.0,28.0,73,30.14,10.0,SE,9.2,-,N/A,,Overcast,140,2013-02-23 18:52:00
2:52 PM,36.0,30.0,79,30.12,10.0,ESE,5.8,-,N/A,,Overcast,120,2013-02-23 19:52:00
3:52 PM,36.0,28.9,76,30.08,10.0,ESE,4.6,-,N/A,,Overcast,110,2013-02-23 20:52:00
4:52 PM,37.0,28.9,73,30.07,10.0,ESE,3.5,-,N/A,,Overcast,120,2013-02-23 21:52:00
5:52 PM,35.1,30.0,82,30.06,7.0,East,3.5,-,0.00,Snow,Light Snow,100,2013-02-23 22:52:00
6:10 PM,35.6,30.2,81,30.05,4.0,ESE,3.5,-,0.00,Snow,Light Snow,120,2013-02-23 23:10:00
6:21 PM,35.6,30.2,81,30.05,6.0,SE,3.5,-,0.00,Snow,Light Snow,130,2013-02-23 23:21:00
6:52 PM,34.0,32.0,92,30.05,3.0,ESE,3.5,-,0.00,Snow,Light Snow,110,2013-02-23 23:52:00
7:33 PM,33.8,32.0,93,30.03,3.0,ESE,3.5,-,0.01,Snow,Light Snow,120,2013-02-24 00:33:00
7:52 PM,34.0,32.0,92,30.04,5.0,East,4.6,-,0.01,Snow,Light Snow,100,2013-02-24 00:52:00
8:09 PM,33.8,32.0,93,30.02,6.0,ESE,3.5,-,0.00,,Overcast,110,2013-02-24 01:09:00
8:52 PM,34.0,32.0,92,30.01,5.0,East,3.5,-,0.00,,Overcast,90,2013-02-24 01:52:00
8:59 PM,33.8,32.0,93,30.00,7.0,East,4.6,-,N/A,,Overcast,100,2013-02-24 01:59:00
9:05 PM,33.8,32.0,93,30.00,8.0,East,3.5,-,N/A,,Overcast,100,2013-02-24 02:05:00
9:52 PM,33.1,32.0,96,29.99,9.0,East,3.5,-,N/A,,Overcast,80,2013-02-24 02:52:00
10:52 PM,34.0,32.0,92,29.96,3.0,NE,3.5,-,0.01,Rain,Light Rain,50,2013-02-24 03:52:00
11:52 PM,34.0,32.0,92,29.93,4.0,NE,4.6,-,0.00,,Overcast,40,2013-02-24 04:52:00